Printer-friendly version

IAU Minor Planet Center

Minor Planet Center

MPEC 2008-T32 : 2008 TZ

The following Minor Planet Electronic Circular may be linked-to from your own Web pages, but must not otherwise be redistributed electronically.


Read MPEC 2008-T31 Read MPEC 2008-T33


M.P.E.C. 2008-T32                                Issued 2008 Oct. 3, 16:53 UT

     The Minor Planet Electronic Circulars contain information on unusual
         minor planets and routine data on comets.  They are published
   on behalf of Commission 20 of the International Astronomical Union by the
          Minor Planet Center, Smithsonian Astrophysical Observatory,
                          Cambridge, MA 02138, U.S.A.

             Prepared using the Tamkin Foundation Computer Network

                              MPC@CFA.HARVARD.EDU
          URL http://www.cfa.harvard.edu/iau/mpc.html  ISSN 1523-6714

                                    2008 TZ

Observations:
     K08T00Z* C2008 10 02.19537 01 17 49.32 +08 11 26.8          20.0 V ET032691
     K08T00Z  C2008 10 02.21295 01 17 42.40 +08 11 16.9          20.0 V ET032691
     K08T00Z  C2008 10 02.23054 01 17 35.34 +08 11 06.6          20.0 V ET032691
     K08T00Z  C2008 10 02.28333 01 17 13.69 +08 10 34.8          20.1 V ET032291
     K08T00Z  C2008 10 02.28709 01 17 12.16 +08 10 32.4          20.0 V ET032291
     K08T00Z  C2008 10 02.28887 01 17 10.74 +08 10 26.5          19.4 R ET032H01
     K08T00Z  C2008 10 02.28974 01 17 10.37 +08 10 26.0          19.6 R ET032H01
     K08T00Z  C2008 10 02.29087 01 17 10.57 +08 10 30.0          20.0 V ET032291
     K08T00Z  C2008 10 02.29224 01 17 09.33 +08 10 24.4          19.4 R ET032H01
     K08T00Z  C2008 10 02.29437 01 17 08.42 +08 10 23.0          19.5 R ET032H01
     K08T00Z  C2008 10 02.30029 01 17 03.20 +08 10 05.8          20.1 V ET032H55
     K08T00Z  C2008 10 02.30771 01 17 00.13 +08 10 00.8          20.2 V ET032H55
     K08T00Z  C2008 10 02.31514 01 16 57.08 +08 09 55.6          20.2 V ET032H55
     K08T00Z tC2008 10 03.18868 01 11 12.21 +07 59 04.5          19.9 V ET032291
     K08T00Z tC2008 10 03.19248 01 11 10.37 +07 59 01.7          20.0 V ET032291
     K08T00Z  C2008 10 03.33990 01 09 54.36 +07 56 57.3          19.1 V ET032G96
     K08T00Z 9C2008 10 03.34152 01 09 54.28 +07 56 50.5          20.0 R ET032673
     K08T00Z  C2008 10 03.34181 01 09 53.35 +07 56 55.6          19.4 V ET032G96
     K08T00Z  C2008 10 03.34369 01 09 52.38 +07 56 53.8          19.1 V ET032G96
     K08T00Z 9C2008 10 03.34501 01 09 52.55 +07 56 47.0                 ET032673
     K08T00Z  C2008 10 03.34563 01 09 51.37 +07 56 52.0          19.0 V ET032G96
     K08T00Z  C2008 10 03.34866 01 09 47.58 +07 56 30.2          19.4 R ET032H36
     K08T00Z 9C2008 10 03.35088 01 09 49.68 +07 56 41.2                 ET032673
     K08T00Z  C2008 10 03.35565 01 09 43.94 +07 56 23.9          19.5 R ET032H36
     K08T00Z  C2008 10 03.35916 01 09 42.11 +07 56 20.4          19.6 R ET032H36
     K08T00Z  C2008 10 03.41221 01 09 15.62 +07 55 44.1          18.7 R ET032H01
     K08T00Z  C2008 10 03.41236 01 09 15.51 +07 55 43.5          19.0 R ET032H01
     K08T00Z  C2008 10 03.41252 01 09 15.42 +07 55 43.6          19.3 R ET032H01
     K08T00Z  C2008 10 03.41385 01 09 14.74 +07 55 42.1          19.2 R ET032H01
     K08T00Z  C2008 10 03.41639 01 09 13.41 +07 55 40.1          18.8 R ET032H01
     K08T00Z  C2008 10 03.42469 01 09 09.04 +07 55 31.3          19.1 R ET032H01
     K08T00Z  C2008 10 03.42603 01 09 08.34 +07 55 30.0          18.9 R ET032H01
     K08T00Z  C2008 10 03.42760 01 09 07.51 +07 55 28.4          18.9 R ET032H01
     K08T00Z  C2008 10 03.42873 01 09 06.92 +07 55 27.3          18.6 R ET032H01
     K08T00Z  C2008 10 03.43014 01 09 06.18 +07 55 26.1          19.0 R ET032H01

Observer details:
291 LPL/Spacewatch II.  Observer T. H. Bressi.  1.8-m f/2.7 reflector + CCD.
673 Table Mountain Observatory, Wrightwood.  Observer H. Rhoades.  0.61-m f/16
    Cassegrain + CCD.
691 Steward Observatory, Kitt Peak.  Observer T. H. Bressi.  0.9-m f/3
    reflector + CCD.
G96 Mt. Lemmon Survey.  Observer R. E. Hill.  Measurers E. C. Beshore,
    A. Boattini, G. J. Garradd, A. R. Gibbs, A. D. Grauer, R. E. Hill,
    R. A. Kowalski, S. M. Larson, R. H. McNaught.  1.5-m reflector + CCD.
H01 Magdalena Ridge Observatory, Socorro.  Observer W. H. Ryan.  2.4-m f/8.9
    reflector + CCD.
H36 Sandlot Observatory, Scranton.  Observer G. Hug.  0.56-m reflector + CCD.
H55 Astronomical Research Observatory, Charleston.  Observer R. Holmes.
    Measurer H. Devore.  0.61-m f/4.0 astrograph + CCD.

Orbital elements:
2008 TZ                                                  Earth MOID = 0.0036 AU
Epoch 2008 Nov. 30.0 TT = JDT 2454800.5                 MPC
M 338.28654              (2000.0)            P               Q
n   1.05886898     Peri.  127.43895     -0.73374628     -0.67940888
a   0.9533255      Node     9.76638     +0.61474093     -0.66667917
e   0.3983297      Incl.    1.50994     +0.28932680     -0.30650034
P   0.93           H   25.3           G   0.15           U   8
Residuals in seconds of arc
081002 691  0.0   0.1-    081002 H55  0.3+  0.0     081003 H36  0.1+  0.4-
081002 691  0.2+  0.0     081003 291  0.1-  0.2+    081003 H01  0.3+  0.3+
081002 691  0.2-  0.1-    081003 291  0.2+  0.3+    081003 H01  0.1-  0.2-
081002 291  0.4-  0.1+    081003 G96  0.4-  0.0     081003 H01  0.2-  0.1+
081002 291  0.1+  0.1+    081003 673 (6.4-  0.2-)   081003 H01  0.1+  0.1-
081002 H01  0.4+  0.1-    081003 G96  0.3-  0.0     081003 H01  0.2+  0.5+
081002 H01  0.3+  0.0     081003 G96  0.1+  0.1-    081003 H01  0.1+  0.0
081002 291  0.1-  0.1+    081003 673 (4.7-  0.6-)   081003 H01  0.1+  0.0
081002 H01  0.4+  0.0     081003 G96  0.3+  0.1-    081003 H01  0.0   0.0
081002 H01  0.1+  0.0     081003 H36  0.1+  0.7-    081003 H01  0.1+  0.0
081002 H55  0.3-  0.2-    081003 673  1.2-  1.1-    081003 H01  0.1+  0.2+
081002 H55  0.2-  0.1-    081003 H36  0.1+  0.3-

Ephemeris:
2008 TZ                  a,e,i = 0.95, 0.40, 2                   q = 0.5736
Date    TT    R. A. (2000) Decl.     Delta      r     Elong.  Phase     V
2008 10 01    01 23.96   +08 23.6    0.0655   1.065   165.5    13.6    20.3
2008 10 03    01 12.47   +08 02.9    0.0528   1.053   170.3     9.3    19.6
2008 10 05    00 53.68   +07 26.0    0.0403   1.040   176.4     3.4    18.7
2008 10 07    00 18.90   +06 09.2    0.0285   1.028   171.9     7.9    18.2
2008 10 09    23 01.45   +02 49.1    0.0182   1.015   150.6    28.9    17.9
2008 10 11    20 05.11   -05 20.2    0.0135   1.002   103.9    75.4    18.6
2008 10 13    17 15.18   -10 18.1    0.0190   0.988    59.6   119.4    21.5
2008 10 15    16 01.79   -10 50.3    0.0295   0.975    39.7   139.2
2008 10 17    15 28.13   -10 43.5    0.0413   0.961    29.5   149.3
2008 10 19    15 09.43   -10 34.0    0.0538   0.947    23.0   155.7
2008 10 21    14 57.57   -10 26.2    0.0665   0.933    18.2   160.5

Sonia Keys                   (C) Copyright 2008 MPC           M.P.E.C. 2008-T32

Read MPEC 2008-T31 Read MPEC 2008-T33


Our Web policy. Index to the CBAT/MPC/ICQ pages.


Valid HTML 4.01!